Date String (YYYY-MM-DD hh:mm:ss) UTC,Instrument flags,Ambient pressure (hPa),Sample flow (lpm),Bypass flow (lpm),Sample temperature (°C),Ambient temperature (°C),ASC tube jacket temperature (°C),LED temperature (°C),Box temperature (°C),Sample RH (%),Span deviation,Mass concentration (μg/m³),Mass concentration (μg/m³),Mass concentration (μg/m³)
DateTimeUTC,F1_M11,P_M11,Q1_M11,Q2_M11,T1_M11,T2_M11,T3_M11,T4_M11,T5_M11,U1_M11,ZSPAN_M11,X0_M11,X2_M11,X1_M11
2023-01-29 19:00:00,,0823.6,5.01,0.00,22.8,22.1,00.0,31.6,24.6,05.1,0002.0,0008.09,0004.94,0004.32
2023-01-29 19:01:00,,0823.5,4.99,0.00,22.8,21.7,00.0,31.6,24.5,05.1,0002.5,0008.15,0004.95,0004.31
2023-01-29 19:02:00,,0823.4,5.02,0.00,22.7,21.4,00.0,31.6,24.4,05.1,0002.7,0008.07,0004.92,0004.31
2023-01-29 19:03:00,,0823.6,5.00,0.00,22.7,21.2,00.0,31.6,24.3,05.1,0002.5,0008.19,0004.97,0004.33
2023-01-29 19:04:00,,0823.6,5.01,0.00,22.7,21.1,00.0,31.6,24.3,05.1,0002.5,0008.55,0005.00,0004.33
2023-01-29 19:05:00,,0823.6,5.00,0.00,22.7,21.0,00.0,31.6,24.2,05.1,0002.6,0008.97,0005.04,0004.33
2023-01-29 19:06:00,,0823.4,5.00,0.00,22.6,20.9,00.0,31.6,24.2,05.1,0002.9,0008.99,0005.04,0004.33
2023-01-29 19:07:00,,0823.4,5.01,0.00,22.6,21.7,00.0,31.5,24.4,05.1,0002.8,0008.99,0005.04,0004.33
2023-01-29 19:08:00,,0823.6,4.99,0.00,22.8,22.7,00.0,31.5,24.7,05.1,0002.7,0008.95,0005.03,0004.33
2023-01-29 19:09:00,,0823.7,5.00,0.00,22.9,23.2,00.0,31.5,24.9,05.1,0002.5,0008.99,0005.05,0004.33
2023-01-29 19:10:00,,0823.6,5.00,0.00,22.9,22.7,00.0,31.6,24.8,05.0,0002.5,0008.99,0005.06,0004.34
2023-01-29 19:11:00,,0823.6,4.99,0.00,22.9,22.2,00.0,31.6,24.7,05.0,0002.8,0008.93,0005.05,0004.34
2023-01-29 19:12:00,,0823.5,4.98,0.00,22.8,21.8,00.0,31.6,24.6,05.0,0002.6,0008.92,0005.06,0004.35
2023-01-29 19:13:00,,0823.5,4.99,0.00,22.8,21.5,00.0,31.6,24.5,05.0,0002.6,0008.88,0005.08,0004.37
2023-01-29 19:14:00,,0823.6,5.01,0.00,22.8,21.3,00.0,31.6,24.4,05.0,0002.7,0008.75,0005.03,0004.37
2023-01-29 19:15:00,,0823.6,5.00,0.00,22.7,21.1,00.0,31.6,24.3,05.0,0002.4,0008.52,0005.04,0004.38
2023-01-29 19:16:00,,0823.5,4.99,0.00,22.7,20.9,00.0,31.6,24.2,05.1,0002.5,0008.27,0005.03,0004.39
2023-01-29 19:17:00,,0823.4,5.00,0.00,22.6,21.0,00.0,31.6,24.2,05.1,0002.3,0008.28,0005.04,0004.40
2023-01-29 19:18:00,,0823.4,5.01,0.00,22.7,22.1,00.0,31.5,24.5,05.1,0002.2,0008.65,0005.08,0004.41
2023-01-29 19:19:00,,0823.4,4.98,0.00,22.8,23.1,00.0,31.5,24.8,05.1,0002.5,0008.80,0005.09,0004.41
2023-01-29 19:20:00,,0823.5,5.00,0.00,22.9,23.1,00.0,31.6,24.9,05.1,0002.6,0008.81,0005.08,0004.41
2023-01-29 19:21:00,,0823.4,4.99,0.00,22.9,22.5,00.0,31.6,24.7,05.1,0003.0,0008.81,0005.07,0004.40
2023-01-29 19:22:00,,0823.4,5.01,0.00,22.9,22.0,00.0,31.6,24.6,05.1,0002.8,0008.75,0005.03,0004.39
2023-01-29 19:23:00,,0823.5,5.01,0.00,22.8,21.6,00.0,31.7,24.5,05.0,0002.5,0008.70,0005.01,0004.39
2023-01-29 19:24:00,,0823.4,5.01,0.00,22.8,21.4,00.0,31.6,24.4,05.0,0002.5,0008.69,0005.00,0004.40
2023-01-29 19:25:00,,0823.4,5.00,0.00,22.7,21.2,00.0,31.6,24.3,05.0,0002.5,0008.65,0004.98,0004.40
2023-01-29 19:26:00,,0823.4,4.98,0.00,22.7,21.0,00.0,31.6,24.2,05.1,0002.4,0008.64,0004.99,0004.39
2023-01-29 19:27:00,,0823.4,5.01,0.00,22.6,20.8,00.0,31.6,24.2,05.1,0002.2,0008.49,0004.96,0004.39
2023-01-29 19:28:00,,0823.3,5.00,0.00,22.6,21.3,00.0,31.6,24.3,05.1,0001.5,0008.44,0004.96,0004.41
2023-01-29 19:29:00,,0823.4,4.99,0.00,22.7,22.3,00.0,31.5,24.6,05.0,0001.3,0008.28,0004.97,0004.42
2023-01-29 19:30:00,,0823.4,4.97,0.00,22.9,23.2,00.0,31.6,24.8,05.0,0001.2,0008.00,0004.97,0004.45
2023-01-29 19:31:00,,0823.4,4.99,0.00,22.9,22.9,00.0,31.6,24.8,04.9,0001.4,0008.06,0005.01,0004.47
2023-01-29 19:32:00,,0823.4,5.00,0.00,22.9,22.3,00.0,31.6,24.7,04.9,0001.4,0007.94,0005.00,0004.48
2023-01-29 19:33:00,,0823.4,4.99,0.00,22.8,21.9,00.0,31.7,24.5,04.9,0001.1,0007.96,0005.02,0004.51
2023-01-29 19:34:00,,0823.5,4.98,0.00,22.8,21.5,00.0,31.7,24.4,05.0,0001.4,0008.03,0005.04,0004.51
2023-01-29 19:35:00,,0823.5,4.99,0.00,22.8,21.2,00.0,31.7,24.4,05.0,0001.3,0008.02,0005.04,0004.52
2023-01-29 19:36:00,,0823.4,5.00,0.00,22.7,21.1,00.0,31.6,24.3,05.0,0001.4,0008.09,0005.07,0004.53
2023-01-29 19:37:00,,0823.3,5.00,0.00,22.7,20.9,00.0,31.6,24.3,05.0,0001.5,0008.07,0005.07,0004.54
2023-01-29 19:38:00,,0823.4,4.99,0.00,22.6,20.9,00.0,31.6,24.2,05.0,0001.7,0008.04,0005.07,0004.55
2023-01-29 19:39:00,,0823.4,5.01,0.00,22.7,21.7,00.0,31.6,24.5,05.0,0001.9,0008.02,0005.05,0004.54
2023-01-29 19:40:00,,0823.5,5.00,0.00,22.8,22.7,00.0,31.6,24.7,05.0,0002.4,0007.96,0005.03,0004.54
2023-01-29 19:41:00,,0823.5,5.00,0.00,22.9,23.2,00.0,31.6,24.9,05.0,0002.2,0008.13,0005.07,0004.54
2023-01-29 19:42:00,,0823.5,4.99,0.00,22.9,22.7,00.0,31.6,24.8,05.0,0002.0,0008.11,0005.07,0004.55
2023-01-29 19:43:00,,0823.4,5.01,0.00,22.9,22.2,00.0,31.7,24.6,05.0,0001.8,0008.17,0005.09,0004.57
2023-01-29 19:44:00,,0823.4,5.01,0.00,22.8,21.7,00.0,31.7,24.5,05.0,0001.8,0008.11,0005.08,0004.56
2023-01-29 19:45:00,,0823.3,5.00,0.00,22.8,21.4,00.0,31.7,24.4,05.1,0001.4,0008.14,0005.10,0004.58
2023-01-29 19:46:00,,0823.4,5.00,0.00,22.8,21.2,00.0,31.7,24.4,05.1,0001.5,0008.18,0005.13,0004.61
2023-01-29 19:47:00,,0823.4,5.00,0.00,22.7,21.0,00.0,31.6,24.3,05.1,0001.7,0008.18,0005.14,0004.63
2023-01-29 19:48:00,,0823.4,5.02,0.00,22.7,20.9,00.0,31.6,24.2,05.1,0001.9,0009.15,0005.19,0004.64
2023-01-29 19:49:00,,0823.4,5.00,0.00,22.6,20.8,00.0,31.6,24.2,05.1,0001.6,0009.26,0005.23,0004.66
2023-01-29 19:50:00,,0823.4,5.00,0.00,22.6,21.4,00.0,31.6,24.3,05.1,0001.5,0009.37,0005.27,0004.68
2023-01-29 19:51:00,,0823.5,5.01,0.00,22.8,22.5,00.0,31.5,24.6,05.1,0001.4,0009.33,0005.26,0004.69
2023-01-29 19:52:00,,0823.6,5.00,0.00,22.9,23.3,00.0,31.6,24.9,05.0,0001.5,0009.14,0005.22,0004.70
2023-01-29 19:53:00,,0823.5,4.98,0.00,22.9,22.8,00.0,31.6,24.8,04.9,0001.6,0009.15,0005.23,0004.71
2023-01-29 19:54:00,,0823.4,5.00,0.00,22.9,22.2,00.0,31.6,24.7,05.0,0001.8,0009.14,0005.22,0004.71
2023-01-29 19:55:00,,0823.4,4.96,0.00,22.9,21.8,00.0,31.7,24.6,05.0,0002.0,0009.22,0005.26,0004.73
2023-01-29 19:56:00,,0823.4,5.02,0.00,22.8,21.5,00.0,31.7,24.4,05.0,0002.3,0009.31,0005.30,0004.74
2023-01-29 19:57:00,,0823.4,4.99,0.00,22.8,21.2,00.0,31.6,24.4,05.0,0002.1,0009.35,0005.31,0004.74
2023-01-29 19:58:00,,0823.4,4.98,0.00,22.7,21.0,00.0,31.6,24.3,05.0,0001.9,0009.46,0005.34,0004.74
2023-01-29 19:59:00,,0823.4,5.01,0.00,22.7,20.9,00.0,31.6,24.2,05.0,0001.9,0008.71,0005.37,0004.76
